Total_Precipitation_Accumulation
0.13 0.09 0.06 0.04 0.25 0.31 0.34 0.20 0.12 0.15 0.11 0.19 0.39 0.27 0.08 0.12 0.12 0.09 0.03 0.04 0.19 0.44 0.94 1.07 0.62 0.43 0.52 0.26 0.08 0.07 0.06 0.08 0.11 0.20 0.26 0.27 0.38 0.37 0.25 0.14 0.20 0.20 0.31 0.27
0.08 0.05 0.01 0.07 0.46 0.24 0.17 0.12 0.21 0.31 0.34 0.32 0.23 0.40 0.15 0.06 0.12 0.08 0.08 0.08 0.18 0.35 0.70 1.13 1.50 0.67 0.60 0.98 0.73 0.53 0.38 0.38 0.35 0.42 0.37 0.19 0.26 0.30 0.26 0.24 0.17 0.23 0.29 0.31
0.06 0.02 0.07 0.17 0.64 0.22 0.09 0.05 0.22 0.71 0.50 0.32 0.23 0.32 0.36 0.09 0.07 0.07 0.09 0.08 0.16 0.29 0.24 0.71 1.55 1.18 1.02 1.30 1.25 0.86 0.84 0.63 0.49 0.32 0.49 0.43 0.40 0.38 0.41 0.37 0.38 0.39 0.30 0.27
0.03 0.01 0.05 0.16 0.53 0.24 0.15 0.08 0.32 0.55 0.30 0.27 0.22 0.35 0.33 0.19 0.12 0.12 0.16 0.07 0.08 0.18 0.16 0.29 0.60 1.08 1.09 0.52 0.47 0.77 1.12 0.99 0.60 0.59 0.83 1.14 1.39 1.39 1.17 1.04 0.82 0.66 0.54 0.52
0.09 0.05 0.09 0.19 0.25 0.22 0.30 0.08 0.17 0.21 0.11 0.10 0.16 0.26 0.21 0.22 0.20 0.26 0.26 0.14 0.13 0.09 0.18 0.21 0.33 0.50 0.39 0.27 0.27 0.30 0.36 0.42 0.56 0.73 0.74 0.88 0.90 0.93 0.82 0.69 0.62 0.60 0.65 0.58
0.04 0.01 0.05 0.09 0.14 0.12 0.11 0.05 0.09 0.14 0.16 0.21 0.20 0.10 0.14 0.20 0.20 0.39 0.29 0.14 0.24 0.14 0.08 0.25 0.19 0.21 0.18 0.16 0.16 0.13 0.13 0.22 0.44 0.41 0.40 0.64 0.93 1.08 0.97 0.71 0.60 0.54 0.42 0.40
0.02 0.05 0.22 0.34 0.23 0.13 0.05 0.15 0.22 0.28 0.38 0.37 0.19 0.05 0.09 0.11 0.09 0.21 0.29 0.20 0.19 0.20 0.05 0.12 0.26 0.12 0.07 0.05 0.02 0.01 0.01 0.03 0.17 0.19 0.25 0.37 0.35 0.48 0.30 0.30 0.23 0.14 0.17 0.16
0.10 0.27 0.33 0.26 0.19 0.11 0.13 0.14 0.23 0.27 0.15 0.27 0.09 0.11 0.14 0.15 0.11 0.15 0.23 0.27 0.19 0.28 0.07 0.05 0.12 0.10 0.03 0.01 0.00 0.00 0.00 0.00 0.00 0.01 0.06 0.09 0.21 0.32 0.19 0.16 0.13 0.12 0.08 0.11
0.18 0.31 0.19 0.07 0.02 0.03 0.02 0.01 0.04 0.05 0.04 0.09 0.15 0.11 0.16 0.14 0.16 0.15 0.21 0.30 0.17 0.12 0.16 0.06 0.04 0.02 0.01 0.00 0.00 0.00 0.00 0.00 0.00 0.00 0.00 0.00 0.01 0.01 0.10 0.15 0.10 0.12 0.10 0.12
0.13 0.22 0.05 0.00 0.01 0.00 0.00 0.00 0.01 0.02 0.03 0.04 0.05 0.02 0.07 0.10 0.10 0.10 0.09 0.14 0.13 0.10 0.10 0.04 0.01 0.01 0.00 0.00 0.00 0.00 0.00 0.00 0.00 0.00 0.00 0.00 0.00 0.00 0.00 0.00 0.00 0.01 0.03 0.03
0.00 0.04 0.02 0.00 0.00 0.00 0.00 0.00 0.00 0.00 0.00 0.00 0.01 0.02 0.00 0.01 0.03 0.03 0.04 0.08 0.05 0.04 0.01 0.00 0.00 0.00 0.00 0.00 0.00 0.00 0.00 0.00 0.00 0.00 0.00 0.00 0.00 0.00 0.00 0.00 0.00 0.00 0.00 0.00
0.00 0.00 0.00 0.00 0.00 0.00 0.00 0.00 0.00 0.00 0.00 0.00 0.00 0.00 0.00 0.00 0.00 0.00 0.00 0.01 0.00 0.00 0.00 0.00 0.00 0.00 0.00 0.00 0.00 0.00 0.00 0.00 0.00 0.00 0.00 0.00 0.00 0.00 0.00 0.00 0.00 0.00 0.00 0.00
0.00 0.00 0.01 0.00 0.00 0.00 0.00 0.00 0.00 0.00 0.00 0.00 0.00 0.00 0.00 0.00 0.00 0.00 0.00 0.00 0.00 0.00 0.00 0.00 0.00 0.00 0.00 0.00 0.00 0.00 0.00 0.00 0.00 0.00 0.00 0.00 0.00 0.00 0.00 0.00 0.00 0.00 0.00 0.00
0.00 0.00 0.00 0.00 0.00 0.00 0.00 0.00 0.00 0.00 0.00 0.00 0.00 0.00 0.00 0.00 0.00 0.00 0.00 0.00 0.00 0.00 0.00 0.00 0.00 0.00 0.00 0.00 0.00 0.00 0.00 0.00 0.00 0.00 0.00 0.00 0.00 0.00 0.00 0.00 0.00 0.00 0.00 0.00
0.00 0.00 0.00 0.00 0.00 0.00 0.00 0.00 0.00 0.00 0.00 0.00 0.00 0.00 0.00 0.00 0.00 0.00 0.00 0.00 0.00 0.00 0.00 0.00 0.00 0.00 0.00 0.00 0.00 0.00 0.00 0.00 0.00 0.00 0.00 0.00 0.00 0.00 0.00 0.00 0.00 0.00 0.00 0.00
0.00 0.00 0.00 0.00 0.00 0.00 0.00 0.00 0.00 0.00 0.00 0.00 0.00 0.00 0.00 0.00 0.00 0.00 0.00 0.00 0.00 0.00 0.00 0.00 0.00 0.00 0.00 0.00 0.00 0.00 0.00 0.00 0.00 0.00 0.00 0.00 0.00 0.00 0.00 0.00 0.00 0.00 0.00 0.00
0.00 0.00 0.00 0.00 0.00 0.00 0.00 0.00 0.00 0.00 0.00 0.00 0.00 0.00 0.00 0.00 0.00 0.00 0.00 0.00 0.00 0.00 0.00 0.00 0.00 0.00 0.00 0.00 0.00 0.00 0.00 0.00 0.00 0.00 0.00 0.00 0.00 0.00 0.00 0.00 0.00 0.00 0.00 0.00
0.00 0.00 0.00 0.00 0.00 0.00 0.00 0.00 0.00 0.00 0.00 0.00 0.00 0.00 0.00 0.00 0.00 0.00 0.00 0.00 0.00 0.00 0.00 0.00 0.00 0.00 0.00 0.00 0.00 0.00 0.00 0.00 0.00 0.00 0.00 0.00 0.00 0.00 0.00 0.00 0.00 0.00 0.00 0.00
0.00 0.00 0.00 0.00 0.00 0.00 0.00 0.00 0.00 0.00 0.00 0.00 0.00 0.00 0.00 0.00 0.00 0.00 0.00 0.00 0.00 0.00 0.00 0.00 0.00 0.00 0.00 0.00 0.00 0.00 0.00 0.00 0.00 0.00 0.00 0.00 0.00 0.00 0.00 0.00 0.00 0.00 0.00 0.00
0.00 0.00 0.00 0.00 0.00 0.00 0.00 0.00 0.00 0.00 0.00 0.00 0.00 0.00 0.00 0.00 0.00 0.00 0.00 0.00 0.00 0.00 0.00 0.00 0.00 0.00 0.00 0.00 0.00 0.00 0.00 0.00 0.00 0.00 0.00 0.00 0.00 0.00 0.00 0.00 0.00 0.00 0.00 0.00
0.00 0.00 0.00 0.00 0.00 0.00 0.00 0.00 0.00 0.00 0.00 0.00 0.00 0.00 0.00 0.00 0.00 0.00 0.00 0.00 0.00 0.00 0.00 0.00 0.00 0.00 0.00 0.00 0.00 0.00 0.00 0.00 0.00 0.00 0.00 0.00 0.00 0.00 0.00 0.00 0.00 0.00 0.00 0.00
0.00 0.00 0.00 0.00 0.00 0.00 0.00 0.00 0.00 0.00 0.00 0.00 0.00 0.00 0.00 0.00 0.00 0.00 0.00 0.00 0.00 0.00 0.00 0.00 0.00 0.00 0.00 0.00 0.00 0.00 0.00 0.00 0.00 0.00 0.00 0.00 0.00 0.00 0.00 0.00 0.00 0.00 0.00 0.00
0.00 0.00 0.00 0.00 0.00 0.00 0.00 0.00 0.00 0.00 0.00 0.00 0.00 0.00 0.00 0.00 0.00 0.00 0.00 0.00 0.00 0.00 0.00 0.00 0.00 0.00 0.00 0.00 0.00 0.00 0.00 0.00 0.00 0.00 0.00 0.00 0.00 0.00 0.00 0.00 0.00 0.00 0.00 0.00
0.00 0.00 0.00 0.00 0.00 0.00 0.00 0.00 0.00 0.00 0.00 0.00 0.00 0.00 0.00 0.00 0.00 0.00 0.00 0.00 0.00 0.00 0.00 0.00 0.00 0.00 0.00 0.00 0.00 0.00 0.00 0.00 0.00 0.00 0.00 0.00 0.00 0.00 0.00 0.00 0.00 0.00 0.00 0.01
0.00 0.00 0.00 0.00 0.00 0.00 0.00 0.00 0.00 0.00 0.00 0.00 0.00 0.00 0.00 0.00 0.00 0.00 0.00 0.00 0.00 0.00 0.00 0.00 0.00 0.00 0.00 0.00 0.00 0.00 0.00 0.00 0.00 0.00 0.00 0.00 0.00 0.00 0.00 0.01 0.02 0.01 0.01 0.03
0.00 0.00 0.00 0.00 0.00 0.00 0.00 0.00 0.00 0.00 0.00 0.00 0.00 0.00 0.00 0.00 0.00 0.00 0.00 0.00 0.00 0.00 0.00 0.00 0.00 0.00 0.00 0.00 0.00 0.00 0.00 0.00 0.00 0.00 0.00 0.00 0.00 0.00 0.01 0.02 0.03 0.06 0.05 0.05